• In Denmark
  • List of Countries
  • For 7 days
  • Water Temperature
  • Satellite Maps
  • Weather Map
  • Weather Widgets
  • user-avatar
    Login

    Hourly Weather Darwin

    Today, 24 August, Thursday

    Time Temperature Precipitation Wind Pressure Humidity
    00:00 +26°C° 0 mm 3 mps 760 mmHg 78%
    01:00 +25°C° 0 mm 3 mps 760 mmHg 80%
    02:00 +25°C° 0 mm 3 mps 760 mmHg 81%
    03:00 +24°C° 0 mm 2 mps 760 mmHg 90%
    04:00 +24°C° 0 mm 2 mps 760 mmHg 92%
    05:00 +24°C° 0 mm 2 mps 760 mmHg 93%
    06:00 +24°C° 0 mm 3 mps 760 mmHg 94%
    07:00 +26°C° 0 mm 3 mps 760 mmHg 79%
    08:00 +28°C° 0 mm 4 mps 761 mmHg 65%
    09:00 +32°C° 0 mm 4 mps 761 mmHg 53%
    10:00 +34°C° 0 mm 4 mps 760 mmHg 42%
    11:00 +36°C° 0 mm 5 mps 760 mmHg 30%
    12:00 +39°C° 0 mm 6 mps 759 mmHg 19%
    13:00 +40°C° 0 mm 5 mps 759 mmHg 19%
    14:00 +41°C° 0 mm 5 mps 758 mmHg 18%
    15:00 +41°C° 0 mm 5 mps 757 mmHg 17%
    16:00 +40°C° 0 mm 5 mps 757 mmHg 22%
    17:00 +37°C° 0 mm 4 mps 757 mmHg 27%
    18:00 +35°C° 0 mm 4 mps 757 mmHg 32%
    19:00 +33°C° 0 mm 4 mps 758 mmHg 44%
    20:00 +30°C° 0 mm 3 mps 758 mmHg 56%
    21:00 +28°C° 0 mm 3 mps 759 mmHg 68%
    22:00 +27°C° 0 mm 3 mps 759 mmHg 72%
    23:00 +27°C° 0 mm 3 mps 759 mmHg 76%

    Tomorrow, 25 August, Friday

    Time Temperature Precipitation Wind Pressure Humidity
    00:00 +26°C° 0 mm 3 mps 759 mmHg 81%
    01:00 +26°C° 0 mm 3 mps 759 mmHg 84%
    02:00 +25°C° 0 mm 3 mps 759 mmHg 87%
    03:00 +25°C° 0 mm 3 mps 759 mmHg 90%
    04:00 +24°C° 0 mm 3 mps 759 mmHg 87%
    05:00 +23°C° 0 mm 4 mps 760 mmHg 84%
    06:00 +22°C° 0 mm 4 mps 760 mmHg 81%
    07:00 +26°C° 0 mm 5 mps 760 mmHg 63%
    08:00 +28°C° 0 mm 6 mps 761 mmHg 44%
    09:00 +30°C° 0 mm 7 mps 761 mmHg 25%
    10:00 +33°C° 0 mm 6 mps 760 mmHg 22%
    11:00 +36°C° 0 mm 6 mps 760 mmHg 19%
    12:00 +39°C° 0 mm 6 mps 759 mmHg 16%
    13:00 +40°C° 0 mm 5 mps 759 mmHg 15%
    14:00 +40°C° 0 mm 5 mps 758 mmHg 14%
    15:00 +41°C° 0 mm 4 mps 757 mmHg 13%
    16:00 +38°C° 0 mm 4 mps 757 mmHg 15%
    17:00 +37°C° 0 mm 3 mps 757 mmHg 17%
    18:00 +35°C° 0 mm 3 mps 757 mmHg 19%
    19:00 +33°C° 0 mm 3 mps 758 mmHg 24%
    20:00 +30°C° 0 mm 3 mps 758 mmHg 29%
    21:00 +28°C° 0 mm 2 mps 759 mmHg 33%
    22:00 +27°C° 0 mm 2 mps 759 mmHg 37%
    23:00 +26°C° 0 mm 2 mps 759 mmHg 41%

    Day after tomorrow, 26 August, Saturday

    Time Temperature Precipitation Wind Pressure Humidity
    00:00 +26°C° 0 mm 1 mps 760 mmHg 45%
    01:00 +25°C° 0 mm 2 mps 759 mmHg 43%
    02:00 +25°C° 0 mm 2 mps 759 mmHg 40%
    03:00 +24°C° 0 mm 3 mps 759 mmHg 37%
    04:00 +22°C° 0 mm 3 mps 759 mmHg 37%
    05:00 +22°C° 0 mm 4 mps 760 mmHg 36%
    06:00 +21°C° 0 mm 5 mps 760 mmHg 36%
    07:00 +23°C° 0 mm 6 mps 760 mmHg 34%
    08:00 +26°C° 0 mm 6 mps 760 mmHg 32%
    09:00 +29°C° 0 mm 7 mps 761 mmHg 30%
    10:00 +32°C° 0 mm 6 mps 760 mmHg 25%
    11:00 +34°C° 0 mm 6 mps 760 mmHg 20%
    12:00 +37°C° 0 mm 5 mps 759 mmHg 16%
    13:00 +39°C° 0 mm 5 mps 759 mmHg 14%
    14:00 +40°C° 0 mm 4 mps 758 mmHg 13%
    15:00 +40°C° 0 mm 4 mps 757 mmHg 11%
    16:00 +37°C° 0 mm 3 mps 757 mmHg 14%
    17:00 +36°C° 0 mm 3 mps 757 mmHg 17%
    18:00 +34°C° 0 mm 2 mps 757 mmHg 19%
    19:00 +31°C° 0 mm 2 mps 758 mmHg 24%
    20:00 +29°C° 0 mm 2 mps 759 mmHg 30%
    21:00 +27°C° 0 mm 2 mps 759 mmHg 35%
    22:00 +26°C° 0 mm 2 mps 760 mmHg 36%
    23:00 +25°C° 0 mm 2 mps 760 mmHg 37%

    27 August, Sunday

    Time Temperature Precipitation Wind Pressure Humidity
    00:00 +25°C° 0 mm 2 mps 760 mmHg 38%
    01:00 +24°C° 0 mm 2 mps 760 mmHg 37%
    02:00 +24°C° 0 mm 2 mps 759 mmHg 35%
    03:00 +24°C° 0 mm 3 mps 759 mmHg 34%
    04:00 +22°C° 0 mm 3 mps 759 mmHg 36%
    05:00 +21°C° 0 mm 4 mps 760 mmHg 37%
    06:00 +21°C° 0 mm 4 mps 760 mmHg 39%
    07:00 +23°C° 0 mm 5 mps 760 mmHg 38%
    08:00 +27°C° 0 mm 6 mps 761 mmHg 37%
    09:00 +29°C° 0 mm 7 mps 761 mmHg 36%
    10:00 +32°C° 0 mm 6 mps 761 mmHg 30%
    11:00 +35°C° 0 mm 6 mps 760 mmHg 25%
    12:00 +38°C° 0 mm 6 mps 759 mmHg 20%
    13:00 +39°C° 0 mm 5 mps 759 mmHg 19%
    14:00 +39°C° 0 mm 5 mps 758 mmHg 19%
    15:00 +40°C° 0 mm 5 mps 757 mmHg 19%
    16:00 +38°C° 0 mm 4 mps 757 mmHg 21%
    17:00 +36°C° 0 mm 3 mps 757 mmHg 23%
    18:00 +35°C° 0 mm 3 mps 757 mmHg 26%
    19:00 +33°C° 0 mm 3 mps 758 mmHg 29%
    20:00 +30°C° 0 mm 3 mps 759 mmHg 33%
    21:00 +28°C° 0 mm 3 mps 759 mmHg 36%
    22:00 +27°C° 0 mm 2 mps 759 mmHg 39%
    23:00 +26°C° 0 mm 2 mps 759 mmHg 42%

    28 August, Monday

    Time Temperature Precipitation Wind Pressure Humidity
    00:00 +26°C° 0 mm 2 mps 759 mmHg 45%
    01:00 +25°C° 0 mm 2 mps 759 mmHg 44%
    02:00 +24°C° 0 mm 2 mps 759 mmHg 43%
    03:00 +24°C° 0 mm 3 mps 759 mmHg 42%
    04:00 +22°C° 0 mm 3 mps 759 mmHg 40%
    05:00 +21°C° 0 mm 4 mps 760 mmHg 39%
    06:00 +21°C° 0 mm 5 mps 760 mmHg 37%
    07:00 +23°C° 0 mm 6 mps 760 mmHg 35%
    08:00 +27°C° 0 mm 7 mps 761 mmHg 32%
    09:00 +30°C° 0 mm 7 mps 761 mmHg 30%
    10:00 +33°C° 0 mm 7 mps 760 mmHg 27%
    11:00 +35°C° 0 mm 6 mps 760 mmHg 24%
    12:00 +38°C° 0 mm 6 mps 759 mmHg 20%
    13:00 +39°C° 0 mm 5 mps 758 mmHg 19%
    14:00 +39°C° 0 mm 5 mps 757 mmHg 18%
    15:00 +40°C° 0 mm 4 mps 757 mmHg 16%
    16:00 +38°C° 0 mm 4 mps 757 mmHg 18%
    17:00 +36°C° 0 mm 3 mps 757 mmHg 19%
    18:00 +35°C° 0 mm 3 mps 757 mmHg 20%
    19:00 +33°C° 0 mm 3 mps 758 mmHg 22%
    20:00 +30°C° 0 mm 3 mps 758 mmHg 24%
    21:00 +28°C° 0 mm 3 mps 759 mmHg 26%
    22:00 +27°C° 0 mm 2 mps 759 mmHg 29%
    23:00 +26°C° 0 mm 2 mps 759 mmHg 31%

    29 August, Tuesday

    Time Temperature Precipitation Wind Pressure Humidity
    00:00 +25°C° 0 mm 1 mps 759 mmHg 33%
    01:00 +24°C° 0 mm 2 mps 759 mmHg 31%
    02:00 +24°C° 0 mm 2 mps 759 mmHg 29%
    03:00 +22°C° 0 mm 3 mps 759 mmHg 27%
    04:00 +22°C° 0 mm 3 mps 759 mmHg 29%
    05:00 +21°C° 0 mm 4 mps 759 mmHg 31%
    06:00 +21°C° 0 mm 5 mps 759 mmHg 32%
    07:00 +23°C° 0 mm 5 mps 760 mmHg 30%
    08:00 +27°C° 0 mm 6 mps 760 mmHg 27%
    09:00 +30°C° 0 mm 7 mps 760 mmHg 24%
    10:00 +33°C° 0 mm 6 mps 760 mmHg 21%
    11:00 +36°C° 0 mm 5 mps 759 mmHg 19%
    12:00 +39°C° 0 mm 5 mps 758 mmHg 16%
    13:00 +39°C° 0 mm 5 mps 758 mmHg 15%
    14:00 +40°C° 0 mm 4 mps 757 mmHg 15%
    15:00 +41°C° 0 mm 4 mps 757 mmHg 15%
    16:00 +38°C° 0 mm 4 mps 757 mmHg 18%
    17:00 +36°C° 0 mm 4 mps 757 mmHg 22%
    18:00 +34°C° 0 mm 3 mps 757 mmHg 26%
    19:00 +31°C° 0 mm 3 mps 758 mmHg 33%
    20:00 +29°C° 0 mm 3 mps 758 mmHg 40%
    21:00 +27°C° 0 mm 2 mps 759 mmHg 48%
    22:00 +27°C° 0 mm 2 mps 759 mmHg 48%
    23:00 +27°C° 0 mm 2 mps 759 mmHg 49%
    Show more